When you browse on this site, cookies collect data to enhance your experience and personalize the content and advertising you see.
Visit our Privacy Policy to learn more. By continuing to use the site, you agree to this use of cookies and data.

Stündliche Wetter Prusinowo

Heute, 4 Juli, Samstag

Zeit Temperatur Niederschläge Wind Luftdruck Luftfeuchtigkeit
00:00 +14°C° 0 mm 1 m/S 749 mmHg 95%
01:00 +13°C° 0 mm 1 m/S 749 mmHg 94%
02:00 +13°C° 0 mm 1 m/S 749 mmHg 94%
03:00 +13°C° 0 mm 1 m/S 749 mmHg 94%
04:00 +13°C° 0 mm 1 m/S 749 mmHg 93%
05:00 +15°C° 0 mm 1 m/S 749 mmHg 88%
06:00 +16°C° 0 mm 2 m/S 749 mmHg 83%
07:00 +18°C° 0 mm 2 m/S 750 mmHg 78%
08:00 +20°C° 0 mm 2 m/S 750 mmHg 71%
09:00 +21°C° 0 mm 3 m/S 750 mmHg 64%
10:00 +24°C° 0 mm 3 m/S 750 mmHg 57%
11:00 +23°C° 0 mm 4 m/S 749 mmHg 56%
12:00 +25°C° 0 mm 4 m/S 749 mmHg 55%
13:00 +26°C° 0 mm 4 m/S 749 mmHg 54%
14:00 +26°C° 0 mm 4 m/S 749 mmHg 55%
15:00 +25°C° 0 mm 4 m/S 748 mmHg 57%
16:00 +25°C° 0 mm 4 m/S 748 mmHg 59%
17:00 +23°C° 0 mm 4 m/S 748 mmHg 64%
18:00 +22°C° 0 mm 3 m/S 748 mmHg 70%
19:00 +21°C° 0 mm 2 m/S 748 mmHg 76%
20:00 +20°C° 0 mm 3 m/S 748 mmHg 79%
21:00 +19°C° 0 mm 3 m/S 748 mmHg 82%
22:00 +18°C° 0 mm 3 m/S 747 mmHg 85%
23:00 +18°C° 0 mm 3 m/S 747 mmHg 85%

Morgen, 5 Juli, Sonntag

Zeit Temperatur Niederschläge Wind Luftdruck Luftfeuchtigkeit
00:00 +17°C° 0 mm 3 m/S 747 mmHg 86%
01:00 +17°C° 0 mm 3 m/S 747 mmHg 86%
02:00 +17°C° 0 mm 3 m/S 747 mmHg 86%
03:00 +17°C° 0 mm 3 m/S 747 mmHg 85%
04:00 +17°C° 0 mm 3 m/S 747 mmHg 85%
05:00 +18°C° 0 mm 3 m/S 747 mmHg 81%
06:00 +19°C° 0 mm 4 m/S 747 mmHg 77%
07:00 +20°C° 0 mm 5 m/S 747 mmHg 73%
08:00 +22°C° 0 mm 5 m/S 747 mmHg 70%
09:00 +23°C° 0 mm 5 m/S 747 mmHg 67%
10:00 +25°C° 0 mm 5 m/S 747 mmHg 64%
11:00 +25°C° 0.2 mm 5 m/S 747 mmHg 64%
12:00 +24°C° 0.2 mm 6 m/S 746 mmHg 65%
13:00 +26°C° 0.2 mm 6 m/S 746 mmHg 65%
14:00 +26°C° 0.1 mm 6 m/S 746 mmHg 66%
15:00 +26°C° 0.1 mm 5 m/S 745 mmHg 68%
16:00 +25°C° 0.1 mm 5 m/S 745 mmHg 69%
17:00 +25°C° 0.2 mm 5 m/S 745 mmHg 74%
18:00 +23°C° 0.2 mm 4 m/S 745 mmHg 79%
19:00 +22°C° 0.2 mm 4 m/S 744 mmHg 84%
20:00 +21°C° 0.1 mm 4 m/S 744 mmHg 86%
21:00 +21°C° 0.1 mm 4 m/S 744 mmHg 89%
22:00 +20°C° 0.1 mm 4 m/S 744 mmHg 91%
23:00 +20°C° 0.1 mm 4 m/S 744 mmHg 92%

übermorgen, 6 Juli, Montag

Zeit Temperatur Niederschläge Wind Luftdruck Luftfeuchtigkeit
00:00 +19°C° 0.1 mm 4 m/S 744 mmHg 93%
01:00 +19°C° 0.1 mm 4 m/S 744 mmHg 94%
02:00 +19°C° 0.1 mm 3 m/S 743 mmHg 94%
03:00 +19°C° 0.1 mm 3 m/S 743 mmHg 94%
04:00 +19°C° 0.1 mm 3 m/S 743 mmHg 94%
05:00 +19°C° 0.1 mm 3 m/S 743 mmHg 91%
06:00 +20°C° 0.1 mm 4 m/S 743 mmHg 88%
07:00 +20°C° 0.1 mm 4 m/S 743 mmHg 86%
08:00 +20°C° 0.1 mm 4 m/S 743 mmHg 85%
09:00 +20°C° 0.1 mm 4 m/S 743 mmHg 84%
10:00 +20°C° 0.1 mm 4 m/S 742 mmHg 83%
11:00 +20°C° 0.1 mm 4 m/S 742 mmHg 79%
12:00 +21°C° 0.1 mm 5 m/S 742 mmHg 75%
13:00 +22°C° 0.1 mm 5 m/S 742 mmHg 71%
14:00 +22°C° 0 mm 5 m/S 742 mmHg 68%
15:00 +22°C° 0 mm 6 m/S 742 mmHg 64%
16:00 +23°C° 0 mm 6 m/S 743 mmHg 60%
17:00 +21°C° 0.1 mm 5 m/S 743 mmHg 68%
18:00 +20°C° 0.1 mm 4 m/S 743 mmHg 75%
19:00 +18°C° 0.1 mm 3 m/S 743 mmHg 83%
20:00 +17°C° 0 mm 2 m/S 743 mmHg 85%
21:00 +15°C° 0 mm 2 m/S 744 mmHg 87%
22:00 +14°C° 0 mm 1 m/S 744 mmHg 89%
23:00 +13°C° 0 mm 2 m/S 744 mmHg 89%

7 Juli, Dienstag

Zeit Temperatur Niederschläge Wind Luftdruck Luftfeuchtigkeit
00:00 +13°C° 0 mm 2 m/S 744 mmHg 90%
01:00 +11°C° 0 mm 3 m/S 745 mmHg 91%
02:00 +11°C° 0 mm 3 m/S 745 mmHg 90%
03:00 +11°C° 0 mm 3 m/S 745 mmHg 90%
04:00 +11°C° 0 mm 3 m/S 745 mmHg 89%
05:00 +12°C° 0 mm 4 m/S 746 mmHg 84%
06:00 +13°C° 0 mm 5 m/S 746 mmHg 80%
07:00 +14°C° 0 mm 5 m/S 746 mmHg 75%
08:00 +15°C° 0 mm 6 m/S 747 mmHg 70%
09:00 +16°C° 0 mm 6 m/S 747 mmHg 65%
10:00 +17°C° 0 mm 6 m/S 747 mmHg 61%
11:00 +17°C° 0.1 mm 6 m/S 747 mmHg 59%
12:00 +17°C° 0.1 mm 6 m/S 748 mmHg 57%
13:00 +17°C° 0.1 mm 6 m/S 748 mmHg 55%
14:00 +17°C° 0.1 mm 5 m/S 748 mmHg 56%
15:00 +17°C° 0.1 mm 5 m/S 748 mmHg 57%
16:00 +17°C° 0.1 mm 5 m/S 748 mmHg 58%
17:00 +17°C° 0.1 mm 4 m/S 748 mmHg 64%
18:00 +16°C° 0.1 mm 3 m/S 749 mmHg 71%
19:00 +15°C° 0.1 mm 2 m/S 749 mmHg 77%
20:00 +14°C° 0 mm 2 m/S 749 mmHg 81%
21:00 +13°C° 0 mm 2 m/S 749 mmHg 85%
22:00 +10°C° 0 mm 2 m/S 749 mmHg 88%
23:00 +10°C° 0 mm 2 m/S 749 mmHg 89%

8 Juli, Mittwoch

Zeit Temperatur Niederschläge Wind Luftdruck Luftfeuchtigkeit
00:00 +10°C° 0 mm 2 m/S 749 mmHg 89%
01:00 +9°C° 0 mm 3 m/S 749 mmHg 89%
02:00 +9°C° 0 mm 3 m/S 749 mmHg 89%
03:00 +9°C° 0 mm 3 m/S 749 mmHg 88%
04:00 +9°C° 0 mm 3 m/S 748 mmHg 88%
05:00 +10°C° 0.3 mm 4 m/S 748 mmHg 86%
06:00 +12°C° 0.3 mm 4 m/S 749 mmHg 84%
07:00 +13°C° 0.3 mm 5 m/S 749 mmHg 82%
08:00 +14°C° 0.5 mm 5 m/S 749 mmHg 78%
09:00 +14°C° 0.5 mm 6 m/S 749 mmHg 74%
10:00 +15°C° 0.5 mm 6 m/S 749 mmHg 69%
11:00 +16°C° 0.4 mm 6 m/S 749 mmHg 68%
12:00 +16°C° 0.4 mm 6 m/S 749 mmHg 66%
13:00 +17°C° 0.4 mm 6 m/S 749 mmHg 64%
14:00 +17°C° 0.4 mm 6 m/S 749 mmHg 65%
15:00 +17°C° 0.4 mm 6 m/S 749 mmHg 67%
16:00 +16°C° 0.4 mm 6 m/S 750 mmHg 68%
17:00 +17°C° 0.1 mm 4 m/S 750 mmHg 72%
18:00 +16°C° 0.1 mm 3 m/S 750 mmHg 76%
19:00 +15°C° 0.1 mm 2 m/S 750 mmHg 80%
20:00 +14°C° 0 mm 2 m/S 751 mmHg 84%
21:00 +13°C° 0 mm 2 m/S 751 mmHg 88%
22:00 +11°C° 0 mm 1 m/S 751 mmHg 91%
23:00 +11°C° 0 mm 1 m/S 751 mmHg 91%

9 Juli, Donnerstag

Zeit Temperatur Niederschläge Wind Luftdruck Luftfeuchtigkeit
00:00 +11°C° 0 mm 1 m/S 751 mmHg 90%
01:00 +11°C° 0 mm 1 m/S 751 mmHg 89%
02:00 +9°C° 0 mm 2 m/S 751 mmHg 89%
03:00 +9°C° 0 mm 2 m/S 751 mmHg 89%
04:00 +9°C° 0 mm 2 m/S 751 mmHg 89%
05:00 +11°C° 0 mm 3 m/S 751 mmHg 83%
06:00 +13°C° 0 mm 3 m/S 751 mmHg 76%
07:00 +15°C° 0 mm 4 m/S 750 mmHg 70%
08:00 +17°C° 0 mm 4 m/S 750 mmHg 65%
09:00 +19°C° 0 mm 5 m/S 750 mmHg 61%
10:00 +21°C° 0 mm 5 m/S 750 mmHg 56%
11:00 +21°C° 0 mm 5 m/S 749 mmHg 57%
12:00 +21°C° 0 mm 5 m/S 749 mmHg 57%
13:00 +21°C° 0 mm 5 m/S 748 mmHg 58%
14:00 +20°C° 0 mm 4 m/S 748 mmHg 64%
15:00 +19°C° 0 mm 3 m/S 748 mmHg 69%
16:00 +17°C° 0 mm 2 m/S 747 mmHg 75%
17:00 +17°C° 0.2 mm 3 m/S 747 mmHg 81%
18:00 +17°C° 0.2 mm 3 m/S 747 mmHg 86%
19:00 +16°C° 0.2 mm 3 m/S 747 mmHg 92%
20:00 +16°C° 0.1 mm 3 m/S 747 mmHg 93%
21:00 +14°C° 0.1 mm 3 m/S 747 mmHg 95%
22:00 +14°C° 0.1 mm 3 m/S 747 mmHg 96%
23:00 +13°C° 0 mm 3 m/S 747 mmHg 96%
Mehr zeigen